sat.trackr.live / text

‹ back to catalog

STARLINK-4440

NORAD 53671 · 2022-105Z

PAYLOAD ACTIVE UNKNOWN

§ Identity

Operator
Country
US
Launch date
2022-08-31
Launch site
AFWTR
Launch vehicle
Mass (kg)
RCS (m²)

Purposes: comms

External: N2YO · Heavens-Above · Gunter

§ Orbital elements

Epoch: 2026-09-20T14:14:13.305984Z

Period
95.64 min
Inclination
97.2853°
Eccentricity
0.0002305
Mean motion
15.05656225 rev/d
Perigee alt
547.9 km
Apogee alt
551.1 km
Semi-major
6,927.6 km
B*
1.5067e-5
RAAN
137.3291°
Arg perigee
80.6994°
Mean anomaly
279.4495°
Rev number
22,255

§ Raw data

STARLINK-44401 53671U 22105Z   26263.59320956  .00000161  00000+0  15067-4 0  99902 53671  97.2853 137.3291 0002305  80.6994 279.4495 15.05656225222553

JSON: /api/v1/satellites/53671 · /tle

For live sub-satellite position, see the globe view (requires WebGL).

§ Visibility from observer

Set your observer location to see the next 7 days of passes ≥ 10°. The values pass through the URL so the page stays shareable.

No JS? Fill the form by hand. The geolocation button needs JavaScript.